sat.trackr.live / text

‹ back to catalog

STARLINK-31140

NORAD 58767 · 2024-011C

PAYLOAD ACTIVE UNKNOWN

§ Identity

Operator
Country
US
Launch date
2024-01-14
Launch site
AFWTR
Launch vehicle
Mass (kg)
RCS (m²)

Purposes: comms

External: N2YO · Heavens-Above · Gunter

§ Orbital elements

Epoch: 2026-05-25T01:28:27.863040Z

Period
94.11 min
Inclination
53.1615°
Eccentricity
0.0001271
Mean motion
15.30198991 rev/d
Perigee alt
474.3 km
Apogee alt
476.1 km
Semi-major
6,853.4 km
B*
4.5808e-5
RAAN
18.9015°
Arg perigee
81.7724°
Mean anomaly
278.3421°
Rev number
13,196

§ Raw data

STARLINK-311401 58767U 24011C   26145.06143360  .00000998  00000+0  45808-4 0  99962 58767  53.1615  18.9015 0001271  81.7724 278.3421 15.30198991131963

JSON: /api/v1/satellites/58767 · /tle

For live sub-satellite position, see the globe view (requires WebGL).

§ Visibility from observer

Set your observer location to see the next 7 days of passes ≥ 10°. The values pass through the URL so the page stays shareable.

No JS? Fill the form by hand. The geolocation button needs JavaScript.